Time,TemperatureF,DewpointF,PressureIn,WindDirection,WindDirectionDegrees,WindSpeedMPH,WindSpeedGustMPH,Humidity,HourlyPrecipIn,Conditions,Clouds,dailyrainin,SoftwareType,DateUTC
2013-06-09 00:00:00,62.0,57.0,30.06,WNW,291,4.0,7.0,83,-99.99,,,-99.99,,2013-06-09 04:00:00,
2013-06-09 00:23:00,62.0,57.0,30.06,WNW,291,4.0,7.0,83,-99.99,,,-99.99,,2013-06-09 04:23:00,
2013-06-09 00:33:00,62.0,57.0,30.06,WNW,291,4.0,7.0,83,-99.99,,,-99.99,,2013-06-09 04:33:00,
2013-06-09 00:43:00,62.0,57.0,30.06,WNW,291,4.0,7.0,83,-99.99,,,-99.99,,2013-06-09 04:43:00,
2013-06-09 00:53:00,62.0,57.0,30.06,WNW,291,4.0,7.0,83,-99.99,,,-99.99,,2013-06-09 04:53:00,
2013-06-09 01:00:00,61.0,57.0,30.06,West,281,4.0,7.0,84,-99.99,,,-99.99,,2013-06-09 05:00:00,
2013-06-09 01:22:00,61.0,57.0,30.06,West,281,4.0,7.0,84,-99.99,,,-99.99,,2013-06-09 05:22:00,
2013-06-09 01:32:00,61.0,57.0,30.06,West,281,4.0,7.0,84,-99.99,,,-99.99,,2013-06-09 05:32:00,
2013-06-09 01:42:00,61.0,57.0,30.06,West,281,4.0,7.0,84,-99.99,,,-99.99,,2013-06-09 05:42:00,
2013-06-09 01:52:00,61.0,57.0,30.06,West,281,4.0,7.0,84,-99.99,,,-99.99,,2013-06-09 05:52:00,
2013-06-09 02:00:00,60.0,56.0,30.06,WNW,302,4.0,7.0,87,-99.99,,,-99.99,,2013-06-09 06:00:00,
2013-06-09 02:32:00,60.0,56.0,30.06,WNW,302,4.0,7.0,87,-99.99,,,-99.99,,2013-06-09 06:32:00,
2013-06-09 02:42:00,60.0,56.0,30.06,WNW,302,4.0,7.0,87,-99.99,,,-99.99,,2013-06-09 06:42:00,
2013-06-09 02:52:00,60.0,56.0,30.06,WNW,302,4.0,7.0,87,-99.99,,,-99.99,,2013-06-09 06:52:00,
2013-06-09 03:00:00,60.0,55.0,30.06,West,279,5.0,8.0,81,-99.99,,,-99.99,,2013-06-09 07:00:00,
2013-06-09 03:32:00,60.0,55.0,30.06,West,279,5.0,8.0,81,-99.99,,,-99.99,,2013-06-09 07:32:00,
2013-06-09 03:42:00,60.0,55.0,30.06,West,279,5.0,8.0,81,-99.99,,,-99.99,,2013-06-09 07:42:00,
2013-06-09 03:53:00,60.0,55.0,30.06,West,279,5.0,8.0,81,-99.99,,,-99.99,,2013-06-09 07:53:00,
2013-06-09 04:00:00,59.0,54.0,30.09,WNW,288,1.0,7.0,84,-99.99,,,-99.99,,2013-06-09 08:00:00,
2013-06-09 04:22:00,59.0,54.0,30.09,WNW,288,1.0,7.0,84,-99.99,,,-99.99,,2013-06-09 08:22:00,
2013-06-09 04:32:00,59.0,54.0,30.09,WNW,288,1.0,7.0,84,-99.99,,,-99.99,,2013-06-09 08:32:00,
2013-06-09 04:42:00,59.0,54.0,30.09,WNW,288,1.0,7.0,84,-99.99,,,-99.99,,2013-06-09 08:42:00,
2013-06-09 04:53:00,59.0,54.0,30.09,WNW,288,1.0,7.0,84,-99.99,,,-99.99,,2013-06-09 08:53:00,
2013-06-09 05:00:00,58.0,54.0,30.12,WNW,287,3.0,5.0,85,-99.99,,,-99.99,,2013-06-09 09:00:00,
2013-06-09 05:22:00,58.0,54.0,30.12,WNW,287,3.0,5.0,85,-99.99,,,-99.99,,2013-06-09 09:22:00,
2013-06-09 05:33:00,58.0,54.0,30.12,WNW,287,3.0,5.0,85,-99.99,,,-99.99,,2013-06-09 09:33:00,
2013-06-09 05:43:00,58.0,54.0,30.12,WNW,287,3.0,5.0,85,-99.99,,,-99.99,,2013-06-09 09:43:00,
2013-06-09 05:53:00,58.0,54.0,30.12,WNW,287,3.0,5.0,85,-99.99,,,-99.99,,2013-06-09 09:53:00,
2013-06-09 06:00:00,56.0,54.0,30.12,South,187,3.0,5.0,93,-99.99,,,-99.99,,2013-06-09 10:00:00,
2013-06-09 06:23:00,56.0,54.0,30.12,South,187,3.0,5.0,93,-99.99,,,-99.99,,2013-06-09 10:23:00,
2013-06-09 06:32:00,56.0,54.0,30.12,South,187,3.0,5.0,93,-99.99,,,-99.99,,2013-06-09 10:32:00,
2013-06-09 06:43:00,56.0,54.0,30.12,South,187,3.0,5.0,93,-99.99,,,-99.99,,2013-06-09 10:43:00,
2013-06-09 06:52:00,56.0,54.0,30.12,South,187,3.0,5.0,93,-99.99,,,-99.99,,2013-06-09 10:52:00,
2013-06-09 07:00:00,62.0,56.0,30.12,North,9,2.0,4.0,82,-99.99,,,-99.99,,2013-06-09 11:00:00,
2013-06-09 07:22:00,62.0,56.0,30.12,North,9,2.0,4.0,82,-99.99,,,-99.99,,2013-06-09 11:22:00,
2013-06-09 07:32:00,62.0,56.0,30.12,North,9,2.0,4.0,82,-99.99,,,-99.99,,2013-06-09 11:32:00,
2013-06-09 08:00:00,64.0,57.0,30.15,WSW,254,2.0,4.0,77,-99.99,,,-99.99,,2013-06-09 12:00:00,
2013-06-09 08:22:00,64.0,57.0,30.15,WSW,254,2.0,4.0,77,-99.99,,,-99.99,,2013-06-09 12:22:00,
2013-06-09 08:32:00,64.0,57.0,30.15,WSW,254,2.0,4.0,77,-99.99,,,-99.99,,2013-06-09 12:32:00,
2013-06-09 08:42:00,64.0,57.0,30.15,WSW,254,2.0,4.0,77,-99.99,,,-99.99,,2013-06-09 12:42:00,
2013-06-09 08:53:00,64.0,57.0,30.15,WSW,254,2.0,4.0,77,-99.99,,,-99.99,,2013-06-09 12:53:00,
2013-06-09 09:00:00,67.0,59.0,30.18,West,276,3.0,4.0,75,-99.99,,,-99.99,,2013-06-09 13:00:00,
2013-06-09 09:23:00,67.0,59.0,30.18,West,276,3.0,4.0,75,-99.99,,,-99.99,,2013-06-09 13:23:00,
2013-06-09 09:32:00,67.0,59.0,30.18,West,276,3.0,4.0,75,-99.99,,,-99.99,,2013-06-09 13:32:00,
2013-06-09 09:42:00,67.0,59.0,30.18,West,276,3.0,4.0,75,-99.99,,,-99.99,,2013-06-09 13:42:00,
2013-06-09 09:52:00,67.0,59.0,30.18,West,276,3.0,4.0,75,-99.99,,,-99.99,,2013-06-09 13:52:00,
2013-06-09 10:00:00,70.0,57.0,30.18,WSW,246,3.0,5.0,63,-99.99,,,-99.99,,2013-06-09 14:00:00,
2013-06-09 10:32:00,70.0,57.0,30.18,WSW,246,3.0,5.0,63,-99.99,,,-99.99,,2013-06-09 14:32:00,
2013-06-09 10:43:00,70.0,57.0,30.18,WSW,246,3.0,5.0,63,-99.99,,,-99.99,,2013-06-09 14:43:00,
2013-06-09 10:52:00,70.0,57.0,30.18,WSW,246,3.0,5.0,63,-99.99,,,-99.99,,2013-06-09 14:52:00,
2013-06-09 11:00:00,71.0,54.0,30.18,WNW,292,5.0,9.0,56,-99.99,,,-99.99,,2013-06-09 15:00:00,
2013-06-09 11:22:00,71.0,54.0,30.18,WNW,292,5.0,9.0,56,-99.99,,,-99.99,,2013-06-09 15:22:00,
2013-06-09 11:33:00,71.0,54.0,30.18,WNW,292,5.0,9.0,56,-99.99,,,-99.99,,2013-06-09 15:33:00,
2013-06-09 11:44:00,71.0,54.0,30.18,WNW,292,5.0,9.0,56,-99.99,,,-99.99,,2013-06-09 15:44:00,
2013-06-09 11:53:00,71.0,54.0,30.18,WNW,292,5.0,9.0,56,-99.99,,,-99.99,,2013-06-09 15:53:00,
2013-06-09 12:00:00,72.0,54.0,30.18,WNW,285,4.0,11.0,52,-99.99,,,-99.99,,2013-06-09 16:00:00,
2013-06-09 12:23:00,72.0,54.0,30.18,WNW,285,4.0,11.0,52,-99.99,,,-99.99,,2013-06-09 16:23:00,
2013-06-09 12:33:00,72.0,54.0,30.18,WNW,285,4.0,11.0,52,-99.99,,,-99.99,,2013-06-09 16:33:00,
2013-06-09 12:43:00,72.0,54.0,30.18,WNW,285,4.0,11.0,52,-99.99,,,-99.99,,2013-06-09 16:43:00,
2013-06-09 12:53:00,72.0,54.0,30.18,WNW,285,4.0,11.0,52,-99.99,,,-99.99,,2013-06-09 16:53:00,
2013-06-09 13:00:00,74.0,58.0,30.18,SW,228,4.0,12.0,57,-99.99,,,-99.99,,2013-06-09 17:00:00,
2013-06-09 13:22:00,74.0,58.0,30.18,SW,228,4.0,12.0,57,-99.99,,,-99.99,,2013-06-09 17:22:00,
2013-06-09 13:32:00,74.0,58.0,30.18,SW,228,4.0,12.0,57,-99.99,,,-99.99,,2013-06-09 17:32:00,
2013-06-09 13:42:00,74.0,58.0,30.18,SW,228,4.0,12.0,57,-99.99,,,-99.99,,2013-06-09 17:42:00,
2013-06-09 13:52:00,74.0,58.0,30.18,SW,228,4.0,12.0,57,-99.99,,,-99.99,,2013-06-09 17:52:00,
2013-06-09 14:00:00,75.0,54.0,30.15,West,268,8.0,13.0,47,-99.99,,,-99.99,,2013-06-09 18:00:00,
2013-06-09 14:22:00,75.0,54.0,30.15,West,268,8.0,13.0,47,-99.99,,,-99.99,,2013-06-09 18:22:00,
2013-06-09 14:33:00,75.0,54.0,30.15,West,268,8.0,13.0,47,-99.99,,,-99.99,,2013-06-09 18:33:00,
2013-06-09 14:42:00,75.0,54.0,30.15,West,268,8.0,13.0,47,-99.99,,,-99.99,,2013-06-09 18:42:00,
2013-06-09 14:52:00,75.0,54.0,30.15,West,268,8.0,13.0,47,-99.99,,,-99.99,,2013-06-09 18:52:00,
2013-06-09 15:00:00,77.0,56.0,30.15,SW,219,4.0,12.0,48,-99.99,,,-99.99,,2013-06-09 19:00:00,
2013-06-09 15:22:00,77.0,56.0,30.15,SW,219,4.0,12.0,48,-99.99,,,-99.99,,2013-06-09 19:22:00,
2013-06-09 15:32:00,77.0,56.0,30.15,SW,219,4.0,12.0,48,-99.99,,,-99.99,,2013-06-09 19:32:00,
2013-06-09 15:43:00,77.0,56.0,30.15,SW,219,4.0,12.0,48,-99.99,,,-99.99,,2013-06-09 19:43:00,
2013-06-09 15:52:00,77.0,56.0,30.15,SW,219,4.0,12.0,48,-99.99,,,-99.99,,2013-06-09 19:52:00,
2013-06-09 16:00:00,77.0,56.0,30.12,SW,236,7.0,12.0,48,-99.99,,,-99.99,,2013-06-09 20:00:00,
2013-06-09 16:32:00,77.0,56.0,30.12,SW,236,7.0,12.0,48,-99.99,,,-99.99,,2013-06-09 20:32:00,
2013-06-09 16:42:00,77.0,56.0,30.12,SW,236,7.0,12.0,48,-99.99,,,-99.99,,2013-06-09 20:42:00,
2013-06-09 16:52:00,77.0,56.0,30.12,SW,236,7.0,12.0,48,-99.99,,,-99.99,,2013-06-09 20:52:00,
2013-06-09 17:00:00,78.0,53.0,30.12,SSW,203,3.0,12.0,42,-99.99,,,-99.99,,2013-06-09 21:00:00,
2013-06-09 17:22:00,78.0,53.0,30.12,SSW,203,3.0,12.0,42,-99.99,,,-99.99,,2013-06-09 21:22:00,
2013-06-09 17:33:00,78.0,53.0,30.12,SSW,203,3.0,12.0,42,-99.99,,,-99.99,,2013-06-09 21:33:00,
2013-06-09 17:44:00,78.0,53.0,30.12,SSW,203,3.0,12.0,42,-99.99,,,-99.99,,2013-06-09 21:44:00,
2013-06-09 17:53:00,78.0,53.0,30.12,SSW,203,3.0,12.0,42,-99.99,,,-99.99,,2013-06-09 21:53:00,
2013-06-09 18:00:00,78.0,57.0,30.12,WSW,240,6.0,-999.0,48,-99.99,,,-99.99,,2013-06-09 22:00:00,
2013-06-09 18:23:00,78.0,57.0,30.12,WSW,240,6.0,-999.0,48,-99.99,,,-99.99,,2013-06-09 22:23:00,
2013-06-09 18:33:00,78.0,57.0,30.12,WSW,240,6.0,-999.0,48,-99.99,,,-99.99,,2013-06-09 22:33:00,
2013-06-09 18:42:00,78.0,57.0,30.12,WSW,240,6.0,-999.0,48,-99.99,,,-99.99,,2013-06-09 22:42:00,
2013-06-09 18:52:00,78.0,57.0,30.12,WSW,240,6.0,-999.0,48,-99.99,,,-99.99,,2013-06-09 22:52:00,
2013-06-09 19:00:00,76.0,56.0,30.12,SSW,212,2.0,8.0,50,-99.99,,,-99.99,,2013-06-09 23:00:00,
2013-06-09 19:22:00,76.0,56.0,30.12,SSW,212,2.0,8.0,50,-99.99,,,-99.99,,2013-06-09 23:22:00,
2013-06-09 19:32:00,76.0,56.0,30.12,SSW,212,2.0,8.0,50,-99.99,,,-99.99,,2013-06-09 23:32:00,
2013-06-09 19:43:00,76.0,56.0,30.12,SSW,212,2.0,8.0,50,-99.99,,,-99.99,,2013-06-09 23:43:00,
2013-06-09 19:52:00,76.0,56.0,30.12,SSW,212,2.0,8.0,50,-99.99,,,-99.99,,2013-06-09 23:52:00,
2013-06-09 20:00:00,72.0,58.0,30.12,SSE,165,3.0,4.0,61,-99.99,,,-99.99,,2013-06-10 00:00:00,
2013-06-09 20:22:00,72.0,58.0,30.12,SSE,165,3.0,4.0,61,-99.99,,,-99.99,,2013-06-10 00:22:00,
2013-06-09 20:32:00,72.0,58.0,30.12,SSE,165,3.0,4.0,61,-99.99,,,-99.99,,2013-06-10 00:32:00,
2013-06-09 20:42:00,72.0,58.0,30.12,SSE,165,3.0,4.0,61,-99.99,,,-99.99,,2013-06-10 00:42:00,
2013-06-09 20:52:00,72.0,58.0,30.12,SSE,165,3.0,4.0,61,-99.99,,,-99.99,,2013-06-10 00:52:00,
2013-06-09 21:00:00,70.0,58.0,30.15,SSW,195,3.0,4.0,65,-99.99,,,-99.99,,2013-06-10 01:00:00,
2013-06-09 21:22:00,70.0,58.0,30.15,SSW,195,3.0,4.0,65,-99.99,,,-99.99,,2013-06-10 01:22:00,
2013-06-09 21:32:00,70.0,58.0,30.15,SSW,195,3.0,4.0,65,-99.99,,,-99.99,,2013-06-10 01:32:00,
2013-06-09 21:43:00,70.0,58.0,30.15,SSW,195,3.0,4.0,65,-99.99,,,-99.99,,2013-06-10 01:43:00,
2013-06-09 21:52:00,70.0,58.0,30.15,SSW,195,3.0,4.0,65,-99.99,,,-99.99,,2013-06-10 01:52:00,
2013-06-09 22:00:00,68.0,57.0,30.15,SSE,167,3.0,4.0,69,-99.99,,,-99.99,,2013-06-10 02:00:00,
2013-06-09 22:32:00,68.0,57.0,30.15,SSE,167,3.0,4.0,69,-99.99,,,-99.99,,2013-06-10 02:32:00,
2013-06-09 22:42:00,68.0,57.0,30.15,SSE,167,3.0,4.0,69,-99.99,,,-99.99,,2013-06-10 02:42:00,
2013-06-09 22:52:00,68.0,57.0,30.15,SSE,167,3.0,4.0,69,-99.99,,,-99.99,,2013-06-10 02:52:00,
2013-06-09 23:00:00,69.0,57.0,30.15,SSE,166,3.0,4.0,66,-99.99,,,-99.99,,2013-06-10 03:00:00,
2013-06-09 23:33:00,69.0,57.0,30.15,SSE,166,3.0,4.0,66,-99.99,,,-99.99,,2013-06-10 03:33:00,
2013-06-09 23:43:00,69.0,57.0,30.15,SSE,166,3.0,4.0,66,-99.99,,,-99.99,,2013-06-10 03:43:00,
2013-06-09 23:53:00,69.0,57.0,30.15,SSE,166,3.0,4.0,66,-99.99,,,-99.99,,2013-06-10 03:53:00,